This demonstration page uses our WeatherBlox Daily Observations layout. Learn more.

Left ArrowRight Arrow

Hourly Observations for August 17, 2022

Temp ( °F °C ) Dew Point ( °F °C ) Humidity (%) Winds ( mph kmh ) Pressure ( in mb ) Visibility ( mi km ) Precip ( " mm )
1:53 am 01:53 Clear 82 27.8 74 23.3 77 77 WSW 6 9 29.90 1013 10 16 0.00 0.00
2:53 am 02:53 Clear 80 26.7 74 23.3 82 82 SW 3 6 29.91 1013 10 16 0.00 0.00
3:53 am 03:53 Clear 79 26.1 73 22.8 82 82 W 5 7 29.93 1013 10 16 0.00 0.00
4:53 am 04:53 Clear 79 26.1 73 22.8 82 82 W 5 7 29.93 1014 9 14 0.00 0.00
5:53 am 05:53 Clear 79 26.1 73 22.8 82 82 Calm 29.94 1014 8 13 0.00 0.00
6:53 am 06:53 Sunny 78 25.6 73 22.8 85 85 Calm 29.97 1015 7 11 0.00 0.00
7:53 am 07:53 Sunny 81 27.2 75 23.9 82 82 W 6 9 29.98 1015 8 13 0.00 0.00
8:53 am 08:53 Sunny 85 29.4 75 23.9 72 72 WSW 9 15 29.98 1015 10 16 0.00 0.00
9:53 am 09:53 Sunny 88 31.1 73 22.8 61 61 W 13 20 29.98 1015 10 16 0.00 0.00
10:53 am 10:53 Sunny 91 32.8 71 21.7 52 52 W 12 19 29.99 1016 10 16 0.00 0.00
11:53 am 11:53 Sunny 94 34.4 71 21.7 48 48 W 6 9 29.97 1015 10 16 0.00 0.00
12:53 pm 12:53 Sunny 97 36.1 69 20.6 41 41 N 7 11 29.95 1014 10 16 0.00 0.00
1:53 pm 13:53 Sunny 100 37.8 71 21.7 40 40 WNW 7 11 29.93 1014 10 16 0.00 0.00
2:53 pm 14:53 Sunny 97 36.1 69 20.6 41 41 Calm 29.91 1013 10 16 0.00 0.00
3:53 pm 15:53 Sunny with Nearby Thunderstorms 100 37.8 70 21.1 38 38 WSW 9 15 29.88 1012 10 16 0.00 0.00
4:53 pm 16:53 Partly Cloudy with Light Rain 89 31.7 69 20.6 52 52 NNE 14 22 29.89 1012 10 16 0.01 0.13
5:53 pm 17:53 Sunny 89 31.7 73 22.8 59 59 E 9 15 29.89 1012 10 16 0.01 0.13
6:53 pm 18:53 Sunny 89 31.7 74 23.3 61 61 E 6 9 29.89 1012 10 16 0.00 0.00
7:53 pm 19:53 Mostly Cloudy 87 30.6 73 22.8 63 63 ENE 5 7 29.91 1013 10 16 0.00 0.00
8:53 pm 20:53 Partly Cloudy 84 28.9 70 21.1 63 63 E 6 9 29.90 1013 10 16 0.00 0.00
9:53 pm 21:53 Mostly Clear 84 28.9 72 22.2 67 67 ESE 6 9 29.92 1013 10 16 0.00 0.00
10:53 pm 22:53 Partly Cloudy 83 28.3 73 22.8 72 72 SE 5 7 29.93 1013 10 16 0.00 0.00
11:03 pm 23:03 Mostly Cloudy 84 28.9 74 23.3 72 72 ESE 8 13 29.92 1013 10 16 0.00 0.00
11:27 pm 23:27 Partly Cloudy 84 28.9 74 23.3 72 72 E 7 11 29.92 1013 10 16 0.00 0.00
11:53 pm 23:53 Clear 83 28.3 74 23.3 74 74 ESE 5 7 29.93 1013 10 16 0.00 0.00

Powered by AerisWeather